TimeCST,TemperatureF,Dew PointF,Humidity,Sea Level PressureIn,VisibilityMPH,Wind Direction,Wind SpeedMPH,Gust SpeedMPH,PrecipitationIn,Events,Conditions,WindDirDegrees,DateUTC
12:12 AM,59.0,57.2,94,30.02,0.5,Calm,Calm,-,N/A,Fog,Fog,0,2012-12-09 06:12:00
12:19 AM,57.2,55.4,94,30.02,0.5,Calm,Calm,-,N/A,Fog,Fog,0,2012-12-09 06:19:00
12:26 AM,57.2,55.4,94,30.02,0.2,Calm,Calm,-,N/A,Fog,Fog,0,2012-12-09 06:26:00
12:35 AM,57.2,57.2,100,30.02,0.5,Calm,Calm,-,N/A,Fog,Fog,0,2012-12-09 06:35:00
12:40 AM,59.0,57.2,94,30.02,0.2,Calm,Calm,-,N/A,Fog,Fog,0,2012-12-09 06:40:00
12:53 AM,60.1,59.0,96,30.01,0.2,Calm,Calm,-,N/A,Fog,Fog,0,2012-12-09 06:53:00
1:10 AM,60.8,59.0,94,30.01,0.5,SSE,3.5,-,N/A,Fog,Fog,160,2012-12-09 07:10:00
1:53 AM,62.1,60.1,93,30.01,0.5,South,4.6,-,N/A,Fog,Fog,180,2012-12-09 07:53:00
2:53 AM,62.1,60.1,93,30.01,0.8,SSE,4.6,-,N/A,,Mist,160,2012-12-09 08:53:00
3:08 AM,62.6,60.8,94,30.02,1.0,South,4.6,-,N/A,,Mist,170,2012-12-09 09:08:00
3:23 AM,62.6,60.8,94,30.02,1.5,Calm,Calm,-,N/A,,Overcast,0,2012-12-09 09:23:00
3:40 AM,62.6,60.8,94,30.02,3.0,South,3.5,-,N/A,,Overcast,170,2012-12-09 09:40:00
3:53 AM,62.1,60.1,93,30.02,4.0,SSE,5.8,-,N/A,,Overcast,160,2012-12-09 09:53:00
4:53 AM,61.0,59.0,93,30.03,8.0,Calm,Calm,-,N/A,,Overcast,0,2012-12-09 10:53:00
5:53 AM,61.0,59.0,93,30.05,9.0,Calm,Calm,-,N/A,,Overcast,0,2012-12-09 11:53:00
6:53 AM,61.0,59.0,93,30.07,8.0,SE,4.6,-,N/A,,Overcast,140,2012-12-09 12:53:00
7:03 AM,60.8,59.0,94,30.07,8.0,SSE,3.5,-,N/A,,Overcast,150,2012-12-09 13:03:00
7:53 AM,62.1,59.0,90,30.08,6.0,South,5.8,-,N/A,,Overcast,180,2012-12-09 13:53:00
8:39 AM,64.4,60.8,88,30.09,10.0,South,4.6,-,N/A,,Mostly Cloudy,190,2012-12-09 14:39:00
8:49 AM,66.2,60.8,83,30.09,10.0,South,5.8,-,N/A,,Scattered Clouds,170,2012-12-09 14:49:00
8:53 AM,66.0,61.0,84,30.09,10.0,SSE,8.1,-,N/A,,Partly Cloudy,160,2012-12-09 14:53:00
9:53 AM,70.0,59.0,68,30.09,10.0,South,9.2,-,N/A,,Scattered Clouds,190,2012-12-09 15:53:00
10:32 AM,71.6,57.2,60,30.08,10.0,South,8.1,-,N/A,,Mostly Cloudy,180,2012-12-09 16:32:00
10:53 AM,71.1,57.9,63,30.06,10.0,SSW,9.2,-,N/A,,Mostly Cloudy,200,2012-12-09 16:53:00
11:00 AM,73.4,57.2,57,30.06,10.0,South,6.9,-,N/A,,Mostly Cloudy,180,2012-12-09 17:00:00
11:53 AM,75.9,55.9,50,30.03,10.0,South,13.8,19.6,N/A,,Mostly Cloudy,180,2012-12-09 17:53:00
12:53 PM,73.9,55.0,52,30.01,10.0,SW,6.9,-,N/A,,Scattered Clouds,220,2012-12-09 18:53:00
1:53 PM,75.9,55.0,48,29.99,10.0,South,11.5,-,N/A,,Scattered Clouds,190,2012-12-09 19:53:00
2:53 PM,73.9,54.0,50,29.99,10.0,SSW,9.2,-,N/A,,Partly Cloudy,200,2012-12-09 20:53:00
3:53 PM,73.0,55.0,53,29.99,10.0,South,3.5,-,N/A,,Clear,190,2012-12-09 21:53:00
4:53 PM,68.0,55.9,65,29.98,10.0,Calm,Calm,-,N/A,,Clear,0,2012-12-09 22:53:00
5:53 PM,63.0,55.0,75,29.98,10.0,SSE,4.6,-,N/A,,Clear,150,2012-12-09 23:53:00
6:53 PM,66.0,57.0,73,29.98,10.0,SE,4.6,-,N/A,,Clear,130,2012-12-10 00:53:00
7:53 PM,66.0,57.0,73,29.97,10.0,SE,4.6,-,N/A,,Clear,140,2012-12-10 01:53:00
8:53 PM,66.9,57.9,73,29.98,10.0,SSE,8.1,-,N/A,,Overcast,160,2012-12-10 02:53:00
9:53 PM,66.9,60.1,79,29.96,10.0,South,8.1,-,N/A,,Scattered Clouds,180,2012-12-10 03:53:00
10:53 PM,68.0,61.0,78,29.94,10.0,South,9.2,-,N/A,,Scattered Clouds,170,2012-12-10 04:53:00
11:53 PM,66.9,62.1,84,29.93,10.0,South,10.4,-,N/A,,Clear,180,2012-12-10 05:53:00